TIME,DELAY(SENSOR),PRES,OXYGEN,RAWTEMP,T(OPTODE),TCPHASE,FLUOR,BETA(BETA700),BETA(BETA412),BETA(BETA440),CDOM,C(CSC),ED(ED412.20),ED(ED444.00),ED(ED489.60),ED(ED554.30),LU(LU412.10),LU(LU443.90),LU(LU489.70),LU(LU554.70),COMP,TILTX,TILTY,CHECK
1339557101,5809,898.4799804687500000,31.4947204589843750,563.5131225585938000,4.3769659996032715,56.8846015930175800,55,98,101,78,83,15357,0,0,0,0,2147122486,2147777481,2147571849,2147573001,264,2,13,46739
1339560697,5808,985.2700195312500000,38.2320899963378900,572.0822753906250000,4.1108322143554690,55.9022712707519500,55,98,101,78,83,15362,0,0,0,0,2147123776,2147776246,2147571026,2147570331,564,2,13,46721
1339564297,5808,986.2999877929688000,40.3393516540527340,574.0651245117188000,4.0491638183593750,55.6108016967773440,55,101,101,78,85,15371,0,0,0,0,2147124022,2147773467,2147569371,2147570614,314,2,13,19998
1339567897,5812,994.8900146484375000,40.6970481872558600,574.5592041015625000,4.0337920188903810,55.5583915710449200,56,99,101,78,83,15363,0,0,0,0,2147123227,2147773970,2147567917,2147572845,3467,2,13,12202
1339571497,5810,1001.4099731445312000,40.8723487854003900,575.3928833007812000,4.0078492164611820,55.5427894592285160,55,101,102,78,83,15365,0,0,0,0,2147121627,2147779611,2147570724,2147570441,228,3,13,37702
1339575097,5810,1001.6199951171875000,41.3483085632324200,576.1790771484375000,3.9833769798278810,55.4802017211914060,55,99,100,78,84,15369,0,0,0,0,2147124544,2147773339,2147572781,2147571456,166,2,13,36794
1339578697,5811,1000.0599975585938000,41.0709686279296900,576.0109252929688000,3.9886169433593750,55.5243988037109400,55,100,100,78,84,15352,0,0,0,0,2147124278,2147778761,2147570651,2147570550,282,3,13,11013
1339582297,5811,1009.7199707031250000,41.0681381225585940,575.5045776367188000,4.0043740272521970,55.5136489868164060,56,99,103,79,84,15361,0,0,0,0,2147125504,2147772370,2147575552,2147575250,98,2,13,49723
1339585897,5808,1006.8499755859375000,41.3859596252441400,576.3228759765625000,3.9789049625396730,55.4766883850097660,55,97,102,78,84,15358,0,0,0,0,2147124233,2147772690,2147571337,2147569828,361,2,13,45268
1339589497,5810,1004.6799926757812000,41.7567710876464840,577.2573242187500000,3.9498119354248047,55.4381294250488300,55,101,101,78,84,15358,0,0,0,0,2147121782,2147781796,2147570633,2147573248,382,2,13,49933
1339593097,5813,1007.6199951171875000,41.5765495300293000,577.1234741210938000,3.9539780616760254,55.4621315002441400,55,98,102,78,84,15353,0,0,0,0,2147125897,2147772662,2147575122,2147572781,24,3,13,14697
1339596697,5810,1007.9799804687500000,41.6939582824707000,576.8425292968750000,3.9627289772033690,55.4432296752929700,54,96,102,78,83,15355,0,0,0,0,2147122102,2147778843,2147580498,2147570678,3375,3,13,7721
1339600297,5808,1010.0000000000000000,41.0943717956543000,576.5914916992188000,3.9705429077148438,55.5240097045898440,55,98,101,79,83,15352,0,0,0,0,2147122971,2147776274,2147574244,2147570624,60,3,13,23388
1339603897,5809,1006.5300292968750000,40.8451004028320300,577.2009277343750000,3.9515669345855713,55.5668296813964840,53,98,101,78,85,15354,0,0,0,0,2147123785,2147775286,2147575323,2147571163,3545,2,13,56185
1339607497,5807,1012.6199951171875000,40.6946411132812500,576.5042114257812000,3.9732611179351807,55.5842094421386700,55,98,102,79,83,15348,0,0,0,0,2147123766,2147775972,2147574098,2147572169,219,3,13,17406
1339611097,5811,1011.0900268554688000,40.7092704772949200,576.4390258789062000,3.9752900600433350,55.5805015563964840,56,98,101,77,84,15353,0,0,0,0,2147120960,2147780077,2147572662,2147571501,178,3,13,46137
1339614697,5810,1011.4099731445312000,40.4880905151367200,575.9376831054688000,3.9908919334411620,55.6065292358398440,54,99,102,79,83,15351,0,0,0,0,2147123209,2147776091,2147572955,2147571456,473,2,13,57025
1339618297,5810,1008.2199707031250000,41.0250091552734400,577.0842895507812000,3.9551980495452880,55.5424003601074200,55,99,101,78,84,15352,0,0,0,0,2147124425,2147772041,2147571849,2147571392,70,2,13,15135
1339621897,5812,1016.1400146484375000,40.7280006408691400,577.3178100585938000,3.9479269981384277,55.5833091735839840,55,99,102,79,83,15350,0,0,0,0,2147120630,2147775113,2147576649,2147570523,41,3,13,21323
1339625497,5810,1017.4299926757812000,41.1463508605957000,576.8112182617188000,3.9637010097503660,55.5148887634277340,55,98,100,78,84,15349,0,0,0,0,2147123556,2147778697,2147576356,2147573211,13,3,13,3607
1339629097,5810,1011.4600219726562000,41.4975700378418000,577.6530151367188000,3.9374918937683105,55.4742698669433600,55,98,102,78,84,15347,0,0,0,0,2147123318,2147778514,2147572708,2147574006,644,2,13,30927
1339632697,5807,1011.7800292968750000,40.9164886474609400,577.4121093750000000,3.9449899196624756,55.5592002868652340,55,106,102,78,84,15348,0,0,0,0,2147123785,2147784237,2147573549,2147568064,3598,2,13,1187
1339636297,5807,1017.0100097656250000,41.2311897277832000,576.6425170898438000,3.9689519405364990,55.5094413757324200,55,98,101,78,84,15346,0,0,0,0,2147122779,2147770523,2147572800,2147573449,118,2,13,34801
1339639897,5812,1010.3699951171875000,40.0836906433105500,575.7529296875000000,3.9966468811035156,55.6670799255371100,54,97,101,77,84,15349,0,0,0,0,2147122624,2147770944,2147573220,2147568310,3541,2,13,55908
1339643497,5809,1010.1500244140625000,40.8607711791992200,577.2509155273438000,3.9500100612640380,55.5634918212890600,55,98,101,79,83,15348,0,0,0,0,2147124443,2147773824,2147571684,2147574838,232,3,13,43022
1339647097,5810,1017.3599853515625000,42.1571388244628900,577.7706298828125000,3.9338281154632570,55.3845710754394500,54,98,101,79,83,15348,0,0,0,0,2147124809,2147781668,2147575350,2147573394,3136,3,13,58301
1339650697,5809,1016.3200073242188000,42.0133705139160160,577.6926269531250000,3.9362580776214600,55.4023284912109400,55,99,102,79,84,15344,0,0,0,0,2147121782,2147778084,2147568768,2147568493,293,2,13,1897
1339654297,5812,1013.8699951171875000,41.2685203552246100,577.8161010742188000,3.9324109554290770,55.5128097534179700,55,98,101,78,84,15350,0,0,0,0,2147123209,2147774848,2147570002,2147575414,3368,2,13,18390
1339657897,5812,1014.6199951171875000,41.1604385375976560,577.6422729492188000,3.9378221035003660,55.5242309570312500,55,101,101,78,83,15348,0,0,0,0,2147123465,2147780498,2147578724,2147575067,74,2,13,61834
1339661497,5810,1019.0800170898438000,40.7431106567382800,576.9342041015625000,3.9598710536956787,55.5819816589355500,54,98,101,78,83,15339,0,0,0,0,2147123675,2147775195,2147574747,2147571446,330,2,13,23323
1339665097,5808,1018.8099975585938000,41.5979690551757800,577.4553833007812000,3.9436440467834473,55.4620895385742200,55,98,100,78,85,15275,0,0,0,0,2147124022,2147776164,2147575990,2147571181,3474,2,13,31948
1339668697,5808,1015.2399902343750000,40.7529106140136700,577.5698852539062000,3.9400749206542970,55.5873718261718750,54,101,101,78,82,15280,0,0,0,0,2147121051,2147775753,2147572443,2147569645,405,2,13,28590
1339672297,5812,1018.8400268554688000,41.4012489318847660,577.7346801757812000,3.9349460601806640,55.4898300170898440,56,98,100,79,84,15277,0,0,0,0,2147124845,2147769472,2147577197,2147571419,855,2,13,59736
1339675897,5809,1014.5200195312500000,40.8117790222168000,577.1478271484375000,3.9532220363616943,55.5696792602539060,55,98,102,79,83,15270,0,0,0,0,2147122413,2147774765,2147577517,2147572297,583,2,13,49700
1339679497,5811,1013.0200195312500000,41.3649291992187500,577.8339843750000000,3.9318540096282960,55.4956092834472660,56,98,102,79,84,15296,0,0,0,0,2147124370,2147776932,2147574400,2147572342,3511,3,13,51078
1339683097,5808,1015.2899780273438000,41.4663696289062500,578.3466186523438000,3.9158880710601807,55.4883308410644500,54,98,102,78,84,15293,0,0,0,0,2147123227,2147775652,2147575698,2147571968,14,3,13,29671
1339686697,5811,1018.2600097656250000,42.3871803283691400,578.4091796875000000,3.9139389991760254,55.3527107238769500,55,99,102,79,85,15293,0,0,0,0,2147122587,2147773257,2147574372,2147571894,18,2,13,10369
1339690297,5811,1019.7999877929688000,41.9369010925293000,577.9207763671875000,3.9291479587554930,55.4124794006347660,55,97,102,78,84,15291,0,0,0,0,2147122834,2147778148,2147576100,2147571053,3556,2,13,27679
1339693897,5808,1017.4099731445312000,41.1745300292968750,577.8767700195312000,3.9305210113525390,55.5254707336425800,55,98,101,78,84,15283,0,0,0,0,2147124224,2147780086,2147574701,2147571611,193,2,13,15949
1339697497,5809,1021.5000000000000000,41.8007392883300800,577.6652221679688000,3.9371089935302734,55.4301414489746100,54,98,103,79,83,15291,0,0,0,0,2147120091,2147775268,2147571794,2147572132,128,2,13,22991
1339701097,5809,1016.2199707031250000,41.0273284912109400,577.6810913085938000,3.9366149902343750,55.5485382080078100,55,99,102,78,84,15292,0,0,0,0,2147120694,2147776064,2147571510,2147572205,446,3,13,17498
1339701957,5811,1022.7399902343750000,41.0364913940429700,577.7435302734375000,3.9346709251403810,55.5427513122558600,54,99,101,78,84,15290,0,0,0,0,2147126875,2147778249,2147575826,2147569801,4,3,13,24966
